📊 Raw Sensor Data

Showing records 36826 to 36850 of 84,903 total

ID Distance (ft) Battery V Battery A Int Temp (°F) Int Humid (%) Ext Temp (°F) Solar V RSSI SNR Time Stamp
48090 15.2 3.89 -5 72 55 71 0.00 -70 8 08/02/2025 08:45 PM
48089 15.2 3.96 -5 74 58 72 0.90 -68 8 08/02/2025 08:30 PM
48088 15.3 3.87 -10 79 58 73 3.00 -69 8 08/02/2025 08:15 PM
48087 15.4 3.98 0 90 54 84 4.60 -69 8 08/02/2025 07:45 PM
48086 15.4 3.99 5 93 54 86 4.50 -69 8 08/02/2025 07:30 PM
48085 15.4 4.00 9 96 53 88 4.60 -69 8 08/02/2025 07:15 PM
48084 15.4 3.96 20 98 52 90 4.60 -71 8 08/02/2025 07:00 PM
48083 15.4 4.09 28 99 52 91 4.50 -71 7 08/02/2025 06:45 PM
48082 15.5 4.02 5 101 51 91 5.10 -70 8 08/02/2025 06:30 PM
48081 15.5 3.95 5 102 50 93 5.10 -69 8 08/02/2025 06:15 PM
48080 15.5 3.95 0 103 49 94 5.10 -69 8 08/02/2025 06:00 PM
48079 15.5 4.12 0 104 49 96 5.10 -71 5 08/02/2025 05:45 PM
48078 15.5 3.97 0 105 48 95 5.10 -69 8 08/02/2025 05:30 PM
48077 15.5 3.95 0 105 47 96 5.10 -72 7 08/02/2025 05:15 PM
48076 15.4 3.95 5 105 46 96 5.10 -71 7 08/02/2025 05:00 PM
48075 15.4 3.95 0 105 45 96 5.10 -71 8 08/02/2025 04:45 PM
48074 15.4 3.95 5 105 45 96 5.10 -69 8 08/02/2025 04:30 PM
48073 15.4 3.95 0 103 45 94 5.10 -72 7 08/02/2025 04:15 PM
48072 15.4 3.95 0 103 44 94 5.10 -72 8 08/02/2025 04:00 PM
48071 15.4 4.11 5 103 43 95 5.10 -69 8 08/02/2025 03:45 PM
48070 15.4 3.95 0 101 43 93 5.10 -71 7 08/02/2025 03:30 PM
48069 15.4 3.95 0 100 43 91 5.10 -69 8 08/02/2025 03:15 PM
48068 15.4 3.95 5 100 43 89 5.10 -70 8 08/02/2025 03:00 PM
48067 15.4 3.95 0 100 42 88 5.10 -70 8 08/02/2025 02:45 PM
48066 15.4 4.08 5 99 42 90 5.10 -72 8 08/02/2025 02:30 PM